HERMES-1

导读

HERMES-1(赫耳墨斯探路者1号)是赫耳墨斯探路者系列卫星,于2025年3月15日发射,运行在近地太阳同步轨道,截至2026年3月已在轨超一年,状态稳定。它由欧洲合作开发,核心任务是研究地球电离层与空间天气,监测电离层扰动及太阳活动对通信导航的影响,获取的数据将助力空间环境科学研究,提升空间天气预报能力,对航天与通信领域发展具备重要价值。

Basic Information
目录编号:
63242
目录名称:
HERMES-1
国际标识:
2025-052AJ
轨道中心:
EARTH
卫星名称:
HERMES-1
卫星全名:
HERMES-1
卫星状态:
在轨 (已飞行539 天)
发射日期:
2025-03-15 UTC
国别 :
意大利 (IT)
星等 :
--
Orbit Information
数据来源 国际轨道数据
星历时间: 2026-09-05T12:10:32+0800
5小时前
查看轨道信息
半长轴: 6877.303km
偏心率: 0.0005307
轨道倾角: 97.377°
近地点辐角 262.525°
升交点赤经 138.334°
平近点角 97.539°
近地点: 495.516km
远地点: 502.816km
周期: 94.599分钟
每日圈数: 15.222135
Detailed Information
使用方式:
暂无
2D Orbit Map
3D Orbit Map
Orbit Altitude Analysis Chart
Orbit Inclination Analysis Chart
Orbit Comprehensive Analysis Chart
View Comprehensive Chart
Conjunction Data List
Event ID Objects TCA Miss Dist (km) Collision Risk Probability Collision Risk Index (CRI) Action
CDM_260907-204603-636506-324221
HERMES-1 (63242)
2026-09-07T
20:46:50+0000
0.732 km
远距离
7.608959E-5 中风险 0.73
CDM_260906-184706-324206-672422
HERMES-1 (63242)
2026-09-06T
18:47:13+0000
0.972 km
远距离
3.03778E-5 中风险 0.65
CDM_260907-133203-400606-324221
HERMES-1 (63242)
2026-09-07T
13:32:51+0000
2.096 km
极远距离
2.579308E-6 低风险 0.43
CDM_260907-191203-636506-324221
HERMES-1 (63242)
2026-09-07T
19:12:09+0000
2.155 km
极远距离
2.410422E-6 低风险 0.43
CDM_260829-020806-324206-739823
HERMES-1 (63242)
2026-08-29T
02:08:07+0000
2.704 km
极远距离
1.379277E-6 低风险 0.38